contact:dominique.lefevre@mio.osupytheas.fr, maurice.libes@osupytheas.fr, didier.mallarino@osupytheas.fr
Project:EMSO http://www.emso-fr.org/EMSO-France
Depth: 2436.0 m
Title:EMSO Ligure Ouest : Data MII capteur MICROCAT
DateTime_Computer,Latitude,Longitude,Temperature,Conductivity,Pressure,DateTime_Instrument
DateTime_Computer,Latitude,Longitude,degC,S m-1,dbar,DateTime_Instrument
2017-10-05T00:01:11Z,42.805,6.029,13.2966,4.60016,2471.844,2017-10-05T02:02:35Z
2017-10-05T00:02:46Z,42.805,6.029,13.2959,4.59984,2471.829,2017-10-05T02:04:10Z
2017-10-05T00:04:21Z,42.805,6.029,13.2951,4.59970,2471.866,2017-10-05T02:05:44Z
2017-10-05T00:05:56Z,42.805,6.029,13.2945,4.59969,2471.844,2017-10-05T02:07:19Z
2017-10-05T00:07:30Z,42.805,6.029,13.2944,4.59975,2471.844,2017-10-05T02:08:54Z
2017-10-05T00:09:05Z,42.805,6.029,13.2936,4.59972,2471.852,2017-10-05T02:10:29Z
2017-10-05T00:10:40Z,42.805,6.029,13.2936,4.59970,2471.866,2017-10-05T02:12:04Z
2017-10-05T00:12:15Z,42.805,6.029,13.2939,4.59974,2471.852,2017-10-05T02:13:39Z
2017-10-05T00:13:50Z,42.805,6.029,13.2944,4.59975,2471.844,2017-10-05T02:15:13Z
2017-10-05T00:15:24Z,42.805,6.029,13.2934,4.59966,2471.844,2017-10-05T02:16:48Z
2017-10-05T00:16:59Z,42.805,6.029,13.2937,4.59967,2471.821,2017-10-05T02:18:23Z
2017-10-05T00:18:34Z,42.805,6.029,13.2939,4.59969,2471.844,2017-10-05T02:19:58Z
2017-10-05T00:20:09Z,42.805,6.029,13.2933,4.59964,2471.866,2017-10-05T02:21:33Z
2017-10-05T00:21:44Z,42.805,6.029,13.2936,4.59968,2471.829,2017-10-05T02:23:08Z
2017-10-05T00:23:19Z,42.805,6.029,13.2936,4.59965,2471.889,2017-10-05T02:24:42Z
2017-10-05T00:24:53Z,42.805,6.029,13.2936,4.59966,2471.852,2017-10-05T02:26:17Z
2017-10-05T00:26:28Z,42.805,6.029,13.2939,4.59965,2471.844,2017-10-05T02:27:52Z
2017-10-05T00:28:03Z,42.805,6.029,13.2939,4.59964,2471.806,2017-10-05T02:29:27Z
2017-10-05T00:29:38Z,42.805,6.029,13.2939,4.59967,2471.844,2017-10-05T02:31:02Z
2017-10-05T00:31:13Z,42.805,6.029,13.2938,4.59964,2471.866,2017-10-05T02:32:37Z
2017-10-05T00:32:48Z,42.805,6.029,13.2939,4.59965,2471.844,2017-10-05T02:34:11Z
2017-10-05T00:34:22Z,42.805,6.029,13.2936,4.59965,2471.821,2017-10-05T02:35:46Z
2017-10-05T00:35:57Z,42.805,6.029,13.2939,4.59967,2471.844,2017-10-05T02:37:21Z
2017-10-05T00:37:32Z,42.805,6.029,13.2935,4.59966,2471.799,2017-10-05T02:38:56Z
2017-10-05T00:39:07Z,42.805,6.029,13.2937,4.59967,2471.784,2017-10-05T02:40:31Z
2017-10-05T00:40:42Z,42.805,6.029,13.2935,4.59967,2471.821,2017-10-05T02:42:06Z
2017-10-05T00:42:17Z,42.805,6.029,13.2933,4.59968,2471.799,2017-10-05T02:43:40Z
2017-10-05T00:43:51Z,42.805,6.029,13.2935,4.59970,2471.821,2017-10-05T02:45:15Z
2017-10-05T00:45:26Z,42.805,6.029,13.2947,4.59973,2471.821,2017-10-05T02:46:50Z
2017-10-05T00:47:01Z,42.805,6.029,13.2940,4.59972,2471.821,2017-10-05T02:48:25Z
2017-10-05T00:48:36Z,42.805,6.029,13.2944,4.59967,2471.806,2017-10-05T02:50:00Z
2017-10-05T00:50:11Z,42.805,6.029,13.2946,4.59971,2471.821,2017-10-05T02:51:35Z
2017-10-05T00:51:46Z,42.805,6.029,13.2948,4.59972,2471.821,2017-10-05T02:53:09Z
2017-10-05T00:53:20Z,42.805,6.029,13.2957,4.59967,2471.821,2017-10-05T02:54:44Z
2017-10-05T00:54:55Z,42.805,6.029,13.2969,4.59979,2471.821,2017-10-05T02:56:19Z
2017-10-05T00:56:30Z,42.805,6.029,13.2982,4.59999,2471.806,2017-10-05T02:57:54Z
2017-10-05T00:58:05Z,42.805,6.029,13.2961,4.59983,2471.821,2017-10-05T02:59:29Z
2017-10-05T00:59:40Z,42.805,6.029,13.2975,4.59990,2471.821,2017-10-05T03:01:04Z
2017-10-05T01:01:15Z,42.805,6.029,13.2979,4.59995,2471.821,2017-10-05T03:02:38Z
2017-10-05T01:02:49Z,42.805,6.029,13.2975,4.60031,2471.806,2017-10-05T03:04:13Z
2017-10-05T01:04:24Z,42.805,6.029,13.2964,4.60062,2471.806,2017-10-05T03:05:48Z
2017-10-05T01:05:59Z,42.805,6.029,13.2966,4.60049,2471.821,2017-10-05T03:07:23Z
2017-10-05T01:07:34Z,42.805,6.029,13.2966,4.60046,2471.821,2017-10-05T03:08:58Z
2017-10-05T01:09:09Z,42.805,6.029,13.2970,4.60033,2471.799,2017-10-05T03:10:32Z
2017-10-05T01:10:44Z,42.805,6.029,13.2967,4.60060,2471.821,2017-10-05T03:12:07Z
2017-10-05T01:12:18Z,42.805,6.029,13.2968,4.60066,2471.844,2017-10-05T03:13:42Z
2017-10-05T01:13:53Z,42.805,6.029,13.2966,4.60040,2471.821,2017-10-05T03:15:17Z
2017-10-05T01:15:28Z,42.805,6.029,13.2966,4.60037,2471.784,2017-10-05T03:16:52Z
2017-10-05T01:17:03Z,42.805,6.029,13.2977,4.60025,2471.821,2017-10-05T03:18:27Z
2017-10-05T01:18:38Z,42.805,6.029,13.2964,4.60055,2471.799,2017-10-05T03:20:01Z
2017-10-05T01:20:13Z,42.805,6.029,13.2968,4.60069,2471.806,2017-10-05T03:21:36Z
2017-10-05T01:21:47Z,42.805,6.029,13.2966,4.60020,2471.821,2017-10-05T03:23:11Z
2017-10-05T01:23:22Z,42.805,6.029,13.2964,4.60019,2471.806,2017-10-05T03:24:46Z
2017-10-05T01:24:57Z,42.805,6.029,13.2975,4.60066,2471.806,2017-10-05T03:26:21Z
2017-10-05T01:26:32Z,42.805,6.029,13.2964,4.60059,2471.821,2017-10-05T03:27:56Z
2017-10-05T01:28:07Z,42.805,6.029,13.2971,4.60034,2471.821,2017-10-05T03:29:30Z
2017-10-05T01:29:42Z,42.805,6.029,13.2963,4.60036,2471.821,2017-10-05T03:31:05Z
2017-10-05T01:31:16Z,42.805,6.029,13.2967,4.60030,2471.806,2017-10-05T03:32:40Z
2017-10-05T01:32:51Z,42.805,6.029,13.2968,4.60057,2471.821,2017-10-05T03:34:15Z
2017-10-05T01:34:26Z,42.805,6.029,13.2958,4.60012,2471.821,2017-10-05T03:35:50Z
2017-10-05T01:36:01Z,42.805,6.029,13.2963,4.60011,2471.821,2017-10-05T03:37:25Z
2017-10-05T01:37:36Z,42.805,6.029,13.2968,4.60008,2471.799,2017-10-05T03:38:59Z
2017-10-05T01:39:11Z,42.805,6.029,13.2972,4.60040,2471.806,2017-10-05T03:40:34Z
2017-10-05T01:40:45Z,42.805,6.029,13.2959,4.60053,2471.844,2017-10-05T03:42:09Z
2017-10-05T01:42:20Z,42.805,6.029,13.2969,4.60091,2471.806,2017-10-05T03:43:44Z
2017-10-05T01:43:55Z,42.805,6.029,13.2963,4.60091,2471.799,2017-10-05T03:45:19Z
2017-10-05T01:45:30Z,42.805,6.029,13.2978,4.60046,2471.799,2017-10-05T03:46:54Z
2017-10-05T01:47:05Z,42.805,6.029,13.2981,4.60041,2471.821,2017-10-05T03:48:28Z
2017-10-05T01:48:40Z,42.805,6.029,13.2980,4.60006,2471.806,2017-10-05T03:50:03Z
2017-10-05T01:50:14Z,42.805,6.029,13.2967,4.59995,2471.821,2017-10-05T03:51:38Z
2017-10-05T01:51:49Z,42.805,6.029,13.2984,4.60013,2471.784,2017-10-05T03:53:13Z
2017-10-05T01:53:24Z,42.805,6.029,13.2990,4.60018,2471.844,2017-10-05T03:54:48Z
2017-10-05T01:54:59Z,42.805,6.029,13.2989,4.59999,2471.821,2017-10-05T03:56:23Z
2017-10-05T01:56:34Z,42.805,6.029,13.2987,4.60010,2471.784,2017-10-05T03:57:57Z
2017-10-05T01:58:09Z,42.805,6.029,13.3060,4.60018,2471.859,2017-10-05T03:59:32Z
2017-10-05T01:59:43Z,42.805,6.029,13.2986,4.60030,2471.821,2017-10-05T04:01:07Z
2017-10-05T02:01:18Z,42.805,6.029,13.2988,4.60064,2471.806,2017-10-05T04:02:42Z
2017-10-05T02:02:53Z,42.805,6.029,13.2972,4.60075,2471.821,2017-10-05T04:04:17Z
2017-10-05T02:04:28Z,42.805,6.029,13.2962,4.60035,2471.806,2017-10-05T04:05:52Z
2017-10-05T02:06:03Z,42.805,6.029,13.2975,4.60020,2471.844,2017-10-05T04:07:26Z
2017-10-05T02:07:37Z,42.805,6.029,13.2972,4.60045,2471.821,2017-10-05T04:09:01Z
2017-10-05T02:09:12Z,42.805,6.029,13.2960,4.60055,2471.784,2017-10-05T04:10:36Z
2017-10-05T02:10:47Z,42.805,6.029,13.2948,4.60038,2471.821,2017-10-05T04:12:11Z
2017-10-05T02:12:22Z,42.805,6.029,13.2964,4.60036,2471.799,2017-10-05T04:13:46Z
2017-10-05T02:13:57Z,42.805,6.029,13.2970,4.60009,2471.821,2017-10-05T04:15:21Z
2017-10-05T02:15:32Z,42.805,6.029,13.2961,4.60033,2471.806,2017-10-05T04:16:55Z
2017-10-05T02:17:06Z,42.805,6.029,13.2980,4.60031,2471.806,2017-10-05T04:18:30Z
2017-10-05T02:18:41Z,42.805,6.029,13.2966,4.60046,2471.806,2017-10-05T04:20:05Z
2017-10-05T02:20:16Z,42.805,6.029,13.2967,4.60015,2471.806,2017-10-05T04:21:40Z
2017-10-05T02:21:51Z,42.805,6.029,13.2958,4.60031,2471.821,2017-10-05T04:23:15Z
2017-10-05T02:23:26Z,42.805,6.029,13.2971,4.60030,2471.799,2017-10-05T04:24:50Z
2017-10-05T02:25:01Z,42.805,6.029,13.2956,4.60033,2471.844,2017-10-05T04:26:24Z
2017-10-05T02:26:35Z,42.805,6.029,13.2957,4.60046,2471.844,2017-10-05T04:27:59Z
2017-10-05T02:28:10Z,42.805,6.029,13.2963,4.60015,2471.821,2017-10-05T04:29:34Z
2017-10-05T02:29:45Z,42.805,6.029,13.2961,4.60018,2471.821,2017-10-05T04:31:09Z
2017-10-05T02:31:20Z,42.805,6.029,13.2962,4.60029,2471.821,2017-10-05T04:32:44Z
2017-10-05T02:32:55Z,42.805,6.029,13.2960,4.60023,2471.821,2017-10-05T04:34:19Z
2017-10-05T02:34:30Z,42.805,6.029,13.2961,4.60011,2471.821,2017-10-05T04:35:53Z
2017-10-05T02:36:04Z,42.805,6.029,13.2957,4.59994,2471.799,2017-10-05T04:37:28Z
2017-10-05T02:37:39Z,42.805,6.029,13.2954,4.60033,2471.844,2017-10-05T04:39:03Z
2017-10-05T02:39:14Z,42.805,6.029,13.2964,4.60035,2471.844,2017-10-05T04:40:38Z
2017-10-05T02:40:49Z,42.805,6.029,13.2970,4.60023,2471.836,2017-10-05T04:42:13Z
2017-10-05T02:42:24Z,42.805,6.029,13.2951,4.60018,2471.821,2017-10-05T04:43:48Z
2017-10-05T02:43:59Z,42.805,6.029,13.2959,4.59992,2471.866,2017-10-05T04:45:22Z
2017-10-05T02:45:33Z,42.805,6.029,13.2959,4.60006,2471.821,2017-10-05T04:46:57Z
2017-10-05T02:47:08Z,42.805,6.029,13.2968,4.60003,2471.829,2017-10-05T04:48:32Z
2017-10-05T02:48:43Z,42.805,6.029,13.2953,4.60012,2471.844,2017-10-05T04:50:07Z
2017-10-05T02:50:18Z,42.805,6.029,13.2957,4.60001,2471.821,2017-10-05T04:51:42Z
2017-10-05T02:51:53Z,42.805,6.029,13.2965,4.60014,2471.844,2017-10-05T04:53:17Z
2017-10-05T02:53:28Z,42.805,6.029,13.2966,4.60004,2471.844,2017-10-05T04:54:51Z
2017-10-05T02:55:02Z,42.805,6.029,13.2951,4.60041,2471.844,2017-10-05T04:56:26Z
2017-10-05T02:56:37Z,42.805,6.029,13.2954,4.60051,2471.821,2017-10-05T04:58:01Z
2017-10-05T02:58:12Z,42.805,6.029,13.2964,4.60049,2471.852,2017-10-05T04:59:36Z
2017-10-05T02:59:47Z,42.805,6.029,13.2957,4.60029,2471.866,2017-10-05T05:01:11Z
2017-10-05T03:01:22Z,42.805,6.029,13.2966,4.60040,2471.852,2017-10-05T05:02:46Z
2017-10-05T03:02:57Z,42.805,6.029,13.2952,4.60051,2471.844,2017-10-05T05:04:20Z
2017-10-05T03:04:31Z,42.805,6.029,13.2958,4.60053,2471.821,2017-10-05T05:05:55Z
2017-10-05T03:06:06Z,42.805,6.029,13.2966,4.60049,2471.852,2017-10-05T05:07:30Z
2017-10-05T03:07:41Z,42.805,6.029,13.2960,4.60021,2471.866,2017-10-05T05:09:05Z
2017-10-05T03:09:16Z,42.805,6.029,13.2960,4.60018,2471.866,2017-10-05T05:10:40Z
2017-10-05T03:10:51Z,42.805,6.029,13.2961,4.60043,2471.866,2017-10-05T05:12:14Z
2017-10-05T03:12:26Z,42.805,6.029,13.2958,4.60006,2471.874,2017-10-05T05:13:49Z
2017-10-05T03:14:00Z,42.805,6.029,13.2968,4.60003,2471.852,2017-10-05T05:15:24Z
2017-10-05T03:15:35Z,42.805,6.029,13.2957,4.60082,2471.844,2017-10-05T05:16:59Z
2017-10-05T03:17:10Z,42.805,6.029,13.2963,4.60057,2471.859,2017-10-05T05:18:34Z
2017-10-05T03:18:45Z,42.805,6.029,13.2966,4.60076,2471.866,2017-10-05T05:20:09Z
2017-10-05T03:20:20Z,42.805,6.029,13.2967,4.60036,2471.866,2017-10-05T05:21:43Z
2017-10-05T03:21:55Z,42.805,6.029,13.2975,4.60076,2471.852,2017-10-05T05:23:18Z
2017-10-05T03:23:29Z,42.805,6.029,13.2973,4.60054,2471.889,2017-10-05T05:24:53Z
2017-10-05T03:25:04Z,42.805,6.029,13.2961,4.60026,2471.844,2017-10-05T05:26:28Z
2017-10-05T03:26:39Z,42.805,6.029,13.2966,4.60022,2471.866,2017-10-05T05:28:03Z
2017-10-05T03:28:14Z,42.805,6.029,13.2959,4.60052,2471.866,2017-10-05T05:29:38Z
2017-10-05T03:29:49Z,42.805,6.029,13.2963,4.60066,2471.866,2017-10-05T05:31:12Z
2017-10-05T03:31:24Z,42.805,6.029,13.2970,4.60018,2471.866,2017-10-05T05:32:47Z
2017-10-05T03:32:58Z,42.805,6.029,13.2968,4.60055,2471.866,2017-10-05T05:34:22Z
2017-10-05T03:34:33Z,42.805,6.029,13.2962,4.60050,2471.866,2017-10-05T05:35:57Z
2017-10-05T03:36:08Z,42.805,6.029,13.2958,4.60031,2471.912,2017-10-05T05:37:32Z
2017-10-05T03:37:43Z,42.805,6.029,13.2964,4.60038,2471.866,2017-10-05T05:39:07Z
2017-10-05T03:39:18Z,42.805,6.029,13.2961,4.60034,2471.866,2017-10-05T05:40:41Z
2017-10-05T03:40:52Z,42.805,6.029,13.2968,4.60028,2471.866,2017-10-05T05:42:16Z
2017-10-05T03:42:27Z,42.805,6.029,13.2976,4.60044,2471.866,2017-10-05T05:43:51Z
2017-10-05T03:44:02Z,42.805,6.029,13.2972,4.60008,2471.866,2017-10-05T05:45:26Z
2017-10-05T03:45:37Z,42.805,6.029,13.2964,4.60055,2471.889,2017-10-05T05:47:01Z
2017-10-05T03:47:12Z,42.805,6.029,13.2958,4.60012,2471.874,2017-10-05T05:48:36Z
2017-10-05T03:48:47Z,42.805,6.029,13.2957,4.60047,2471.912,2017-10-05T05:50:10Z
2017-10-05T03:50:21Z,42.805,6.029,13.2961,4.60066,2471.866,2017-10-05T05:51:45Z
2017-10-05T03:51:56Z,42.805,6.029,13.2958,4.60036,2471.889,2017-10-05T05:53:20Z
2017-10-05T03:53:31Z,42.805,6.029,13.2958,4.60038,2471.919,2017-10-05T05:54:55Z
2017-10-05T03:55:06Z,42.805,6.029,13.2957,4.60049,2471.866,2017-10-05T05:56:30Z
2017-10-05T03:56:41Z,42.805,6.029,13.2957,4.60023,2471.897,2017-10-05T05:58:05Z
2017-10-05T03:58:16Z,42.805,6.029,13.2965,4.60057,2471.874,2017-10-05T05:59:39Z
2017-10-05T03:59:50Z,42.805,6.029,13.2962,4.60041,2471.889,2017-10-05T06:01:14Z
2017-10-05T04:01:25Z,42.805,6.029,13.2964,4.60016,2471.919,2017-10-05T06:02:49Z
2017-10-05T04:03:00Z,42.805,6.029,13.2959,4.60037,2471.852,2017-10-05T06:04:24Z
2017-10-05T04:04:35Z,42.805,6.029,13.2959,4.60066,2471.912,2017-10-05T06:05:59Z
2017-10-05T04:06:10Z,42.805,6.029,13.2962,4.60032,2471.889,2017-10-05T06:07:34Z
2017-10-05T04:07:45Z,42.805,6.029,13.2958,4.60031,2471.912,2017-10-05T06:09:08Z
2017-10-05T04:09:19Z,42.805,6.029,13.2961,4.60044,2471.889,2017-10-05T06:10:43Z
2017-10-05T04:10:54Z,42.805,6.029,13.2965,4.60049,2471.934,2017-10-05T06:12:18Z
2017-10-05T04:12:29Z,42.805,6.029,13.2957,4.60018,2471.912,2017-10-05T06:13:53Z
2017-10-05T04:14:04Z,42.805,6.029,13.2970,4.60012,2471.912,2017-10-05T06:15:28Z
2017-10-05T04:15:39Z,42.805,6.029,13.2960,4.60015,2471.912,2017-10-05T06:17:03Z
2017-10-05T04:17:14Z,42.805,6.029,13.2969,4.60047,2471.912,2017-10-05T06:18:37Z
2017-10-05T04:18:48Z,42.805,6.029,13.2972,4.60026,2471.919,2017-10-05T06:20:12Z
2017-10-05T04:20:23Z,42.805,6.029,13.2968,4.60015,2471.934,2017-10-05T06:21:47Z
2017-10-05T04:21:58Z,42.805,6.029,13.2959,4.60051,2471.934,2017-10-05T06:23:22Z
2017-10-05T04:23:33Z,42.805,6.029,13.2965,4.60037,2471.912,2017-10-05T06:24:57Z
2017-10-05T04:25:08Z,42.805,6.029,13.2960,4.60026,2471.957,2017-10-05T06:26:32Z
2017-10-05T04:26:43Z,42.805,6.029,13.2957,4.60040,2471.912,2017-10-05T06:28:06Z
2017-10-05T04:28:17Z,42.805,6.029,13.2961,4.60026,2471.934,2017-10-05T06:29:41Z
2017-10-05T04:29:52Z,42.805,6.029,13.2961,4.60043,2471.919,2017-10-05T06:31:16Z
2017-10-05T04:31:27Z,42.805,6.029,13.2968,4.60016,2471.934,2017-10-05T06:32:51Z
2017-10-05T04:33:02Z,42.805,6.029,13.2957,4.60032,2471.919,2017-10-05T06:34:26Z
2017-10-05T04:34:37Z,42.805,6.029,13.2959,4.60007,2471.934,2017-10-05T06:36:01Z
2017-10-05T04:36:12Z,42.805,6.029,13.2964,4.60024,2471.919,2017-10-05T06:37:35Z
2017-10-05T04:37:46Z,42.805,6.029,13.2958,4.60060,2471.957,2017-10-05T06:39:10Z
2017-10-05T04:39:21Z,42.805,6.029,13.2958,4.60036,2471.957,2017-10-05T06:40:45Z
2017-10-05T04:40:56Z,42.805,6.029,13.2959,4.60043,2471.957,2017-10-05T06:42:20Z
2017-10-05T04:42:31Z,42.805,6.029,13.2966,4.60009,2471.919,2017-10-05T06:43:55Z
2017-10-05T04:44:06Z,42.805,6.029,13.2966,4.60039,2471.934,2017-10-05T06:45:30Z
2017-10-05T04:45:41Z,42.805,6.029,13.2961,4.60021,2471.957,2017-10-05T06:47:04Z
2017-10-05T04:47:15Z,42.805,6.029,13.2970,4.60049,2471.934,2017-10-05T06:48:39Z
2017-10-05T04:48:50Z,42.805,6.029,13.2955,4.60006,2471.957,2017-10-05T06:50:14Z
2017-10-05T04:50:25Z,42.805,6.029,13.2958,4.60041,2471.897,2017-10-05T06:51:49Z
2017-10-05T04:52:00Z,42.805,6.029,13.2959,4.60049,2471.957,2017-10-05T06:53:24Z
2017-10-05T04:53:35Z,42.805,6.029,13.2968,4.60040,2471.964,2017-10-05T06:54:59Z
2017-10-05T04:55:10Z,42.805,6.029,13.2964,4.60064,2471.957,2017-10-05T06:56:33Z
2017-10-05T04:56:44Z,42.805,6.029,13.2962,4.60029,2471.957,2017-10-05T06:58:08Z
2017-10-05T04:58:19Z,42.805,6.029,13.2975,4.60032,2471.942,2017-10-05T06:59:43Z
2017-10-05T04:59:54Z,42.805,6.029,13.2973,4.60018,2471.957,2017-10-05T07:01:18Z
2017-10-05T05:01:29Z,42.805,6.029,13.2968,4.60001,2471.964,2017-10-05T07:02:53Z
2017-10-05T05:03:04Z,42.805,6.029,13.2959,4.60013,2471.934,2017-10-05T07:04:28Z
2017-10-05T05:04:39Z,42.805,6.029,13.2952,4.60004,2471.957,2017-10-05T07:06:02Z
2017-10-05T05:06:13Z,42.805,6.029,13.2966,4.60074,2471.964,2017-10-05T07:07:37Z
2017-10-05T05:07:48Z,42.805,6.029,13.2963,4.60032,2471.957,2017-10-05T07:09:12Z
2017-10-05T05:09:23Z,42.805,6.029,13.2962,4.60029,2471.979,2017-10-05T07:10:47Z
2017-10-05T05:10:58Z,42.805,6.029,13.2974,4.60076,2471.964,2017-10-05T07:12:22Z
2017-10-05T05:12:33Z,42.805,6.029,13.2962,4.60018,2471.979,2017-10-05T07:13:56Z
2017-10-05T05:14:08Z,42.805,6.029,13.2970,4.60020,2471.964,2017-10-05T07:15:31Z
2017-10-05T05:15:42Z,42.805,6.029,13.2958,4.60029,2471.957,2017-10-05T07:17:06Z
2017-10-05T05:17:17Z,42.805,6.029,13.2962,4.60052,2471.957,2017-10-05T07:18:41Z
2017-10-05T05:18:52Z,42.805,6.029,13.2973,4.60006,2471.942,2017-10-05T07:20:16Z
2017-10-05T05:20:27Z,42.805,6.029,13.2970,4.60034,2471.964,2017-10-05T07:21:51Z
2017-10-05T05:22:02Z,42.805,6.029,13.2974,4.60019,2471.957,2017-10-05T07:23:25Z
2017-10-05T05:23:37Z,42.805,6.029,13.2975,4.60056,2471.979,2017-10-05T07:25:00Z
2017-10-05T05:25:11Z,42.805,6.029,13.2985,4.60084,2471.994,2017-10-05T07:26:35Z
2017-10-05T05:26:46Z,42.805,6.029,13.2990,4.60055,2471.979,2017-10-05T07:28:10Z
2017-10-05T05:28:21Z,42.805,6.029,13.2973,4.60054,2471.957,2017-10-05T07:29:45Z
2017-10-05T05:29:56Z,42.805,6.029,13.2982,4.60082,2471.957,2017-10-05T07:31:20Z
2017-10-05T05:31:31Z,42.805,6.029,13.2975,4.60104,2471.957,2017-10-05T07:32:54Z
2017-10-05T05:33:06Z,42.805,6.029,13.2979,4.60049,2471.979,2017-10-05T07:34:29Z
2017-10-05T05:34:40Z,42.805,6.029,13.2967,4.60029,2472.002,2017-10-05T07:36:04Z
2017-10-05T05:36:15Z,42.805,6.029,13.2966,4.60042,2471.979,2017-10-05T07:37:39Z
2017-10-05T05:37:50Z,42.805,6.029,13.2975,4.60052,2471.979,2017-10-05T07:39:14Z
2017-10-05T05:39:25Z,42.805,6.029,13.2978,4.60038,2471.979,2017-10-05T07:40:49Z
2017-10-05T05:41:00Z,42.805,6.029,13.2986,4.60057,2471.957,2017-10-05T07:42:23Z
2017-10-05T05:42:35Z,42.805,6.029,13.2976,4.60001,2471.964,2017-10-05T07:43:58Z
2017-10-05T05:44:09Z,42.805,6.029,13.2968,4.60042,2471.979,2017-10-05T07:45:33Z
2017-10-05T05:45:44Z,42.805,6.029,13.2968,4.60028,2471.964,2017-10-05T07:47:08Z
2017-10-05T05:47:19Z,42.805,6.029,13.2961,4.60066,2471.979,2017-10-05T07:48:43Z
2017-10-05T05:48:54Z,42.805,6.029,13.2983,4.60037,2472.002,2017-10-05T07:50:18Z
2017-10-05T05:50:29Z,42.805,6.029,13.2978,4.60026,2471.979,2017-10-05T07:51:52Z
2017-10-05T05:52:03Z,42.805,6.029,13.2968,4.60041,2471.987,2017-10-05T07:53:27Z
2017-10-05T05:53:38Z,42.805,6.029,13.2965,4.60029,2471.987,2017-10-05T07:55:02Z
2017-10-05T05:55:13Z,42.805,6.029,13.2975,4.60054,2471.987,2017-10-05T07:56:37Z
2017-10-05T05:56:48Z,42.805,6.029,13.2970,4.60065,2472.002,2017-10-05T07:58:12Z
2017-10-05T05:58:23Z,42.805,6.029,13.2964,4.60060,2471.979,2017-10-05T07:59:47Z
2017-10-05T05:59:58Z,42.805,6.029,13.2978,4.60063,2472.002,2017-10-05T08:01:21Z
2017-10-05T06:01:32Z,42.805,6.029,13.2970,4.60024,2472.024,2017-10-05T08:02:56Z
2017-10-05T06:03:07Z,42.805,6.029,13.2973,4.60067,2472.016,2017-10-05T08:04:31Z
2017-10-05T06:04:42Z,42.805,6.029,13.2971,4.60030,2471.979,2017-10-05T08:06:06Z
2017-10-05T06:06:17Z,42.805,6.029,13.2974,4.60065,2471.987,2017-10-05T08:07:41Z
2017-10-05T06:07:52Z,42.805,6.029,13.2968,4.60048,2471.987,2017-10-05T08:09:16Z
2017-10-05T06:09:27Z,42.805,6.029,13.2974,4.60020,2472.002,2017-10-05T08:10:50Z
2017-10-05T06:11:01Z,42.805,6.029,13.2979,4.60091,2472.002,2017-10-05T08:12:25Z
2017-10-05T06:12:36Z,42.805,6.029,13.2983,4.60037,2472.002,2017-10-05T08:14:00Z
2017-10-05T06:14:11Z,42.805,6.029,13.2971,4.60049,2472.002,2017-10-05T08:15:35Z
2017-10-05T06:15:46Z,42.805,6.029,13.2978,4.60063,2471.979,2017-10-05T08:17:10Z
2017-10-05T06:17:21Z,42.805,6.029,13.2977,4.60020,2472.024,2017-10-05T08:18:45Z
2017-10-05T06:18:56Z,42.805,6.029,13.2964,4.60035,2472.024,2017-10-05T08:20:19Z
2017-10-05T06:20:30Z,42.805,6.029,13.2977,4.60024,2471.979,2017-10-05T08:21:54Z
2017-10-05T06:22:05Z,42.805,6.029,13.2974,4.60065,2472.002,2017-10-05T08:23:29Z
2017-10-05T06:23:40Z,42.805,6.029,13.2968,4.60039,2471.979,2017-10-05T08:25:04Z
2017-10-05T06:25:15Z,42.805,6.029,13.2977,4.60033,2471.964,2017-10-05T08:26:39Z
2017-10-05T06:26:50Z,42.805,6.029,13.2981,4.60017,2471.987,2017-10-05T08:28:14Z
2017-10-05T06:28:25Z,42.805,6.029,13.2985,4.60014,2472.024,2017-10-05T08:29:48Z
2017-10-05T06:29:59Z,42.805,6.029,13.2984,4.60045,2471.979,2017-10-05T08:31:23Z
2017-10-05T06:31:34Z,42.805,6.029,13.2985,4.60045,2472.002,2017-10-05T08:32:58Z
2017-10-05T06:33:09Z,42.805,6.029,13.2981,4.60043,2472.002,2017-10-05T08:34:33Z
2017-10-05T06:34:44Z,42.805,6.029,13.2979,4.60058,2472.024,2017-10-05T08:36:08Z
2017-10-05T06:36:19Z,42.805,6.029,13.2995,4.60038,2472.002,2017-10-05T08:37:43Z
2017-10-05T06:37:54Z,42.805,6.029,13.2997,4.60043,2472.002,2017-10-05T08:39:17Z
2017-10-05T06:39:28Z,42.805,6.029,13.3013,4.60032,2471.987,2017-10-05T08:40:52Z
2017-10-05T06:41:03Z,42.805,6.029,13.2982,4.60022,2471.979,2017-10-05T08:42:27Z
2017-10-05T06:42:38Z,42.805,6.029,13.2997,4.59994,2472.002,2017-10-05T08:44:02Z
2017-10-05T06:44:13Z,42.805,6.029,13.2976,4.60003,2472.002,2017-10-05T08:45:37Z
2017-10-05T06:45:48Z,42.805,6.029,13.2984,4.59999,2472.01,2017-10-05T08:47:12Z
2017-10-05T06:47:23Z,42.805,6.029,13.3006,4.60024,2472.002,2017-10-05T08:48:46Z
2017-10-05T06:48:57Z,42.805,6.029,13.3001,4.60022,2472.002,2017-10-05T08:50:21Z
2017-10-05T06:50:32Z,42.805,6.029,13.2980,4.60041,2472.024,2017-10-05T08:51:56Z
2017-10-05T06:52:07Z,42.805,6.029,13.2994,4.60037,2471.979,2017-10-05T08:53:31Z
2017-10-05T06:53:42Z,42.805,6.029,13.2992,4.60011,2472.002,2017-10-05T08:55:06Z
2017-10-05T06:55:17Z,42.805,6.029,13.2978,4.60006,2471.987,2017-10-05T08:56:41Z
2017-10-05T06:56:52Z,42.805,6.029,13.2950,4.60008,2471.979,2017-10-05T08:58:15Z
2017-10-05T06:58:26Z,42.805,6.029,13.2943,4.59992,2471.964,2017-10-05T08:59:50Z
2017-10-05T07:00:01Z,42.805,6.029,13.2941,4.60009,2472.024,2017-10-05T09:01:25Z
2017-10-05T07:01:36Z,42.805,6.029,13.2947,4.59976,2471.987,2017-10-05T09:03:00Z
2017-10-05T07:03:11Z,42.805,6.029,13.2949,4.59988,2472.024,2017-10-05T09:04:35Z
2017-10-05T07:04:46Z,42.805,6.029,13.2967,4.59998,2472.002,2017-10-05T09:06:09Z
2017-10-05T07:06:21Z,42.805,6.029,13.2969,4.60018,2471.964,2017-10-05T09:07:44Z
2017-10-05T07:07:55Z,42.805,6.029,13.2985,4.59998,2472.002,2017-10-05T09:09:19Z
2017-10-05T07:09:30Z,42.805,6.029,13.2968,4.59984,2472.024,2017-10-05T09:10:54Z
2017-10-05T07:11:05Z,42.805,6.029,13.2989,4.59989,2471.957,2017-10-05T09:12:29Z
2017-10-05T07:12:40Z,42.805,6.029,13.2936,4.59993,2471.979,2017-10-05T09:14:04Z
2017-10-05T07:14:15Z,42.805,6.029,13.2937,4.59988,2472.024,2017-10-05T09:15:38Z
2017-10-05T07:15:49Z,42.805,6.029,13.2952,4.59985,2471.987,2017-10-05T09:17:13Z
2017-10-05T07:17:24Z,42.805,6.029,13.2954,4.60025,2471.979,2017-10-05T09:18:48Z
2017-10-05T07:18:59Z,42.805,6.029,13.2940,4.59992,2471.979,2017-10-05T09:20:23Z
2017-10-05T07:20:34Z,42.805,6.029,13.2978,4.59986,2471.979,2017-10-05T09:21:58Z
2017-10-05T07:22:09Z,42.805,6.029,13.2953,4.59986,2471.987,2017-10-05T09:23:33Z
2017-10-05T07:23:44Z,42.805,6.029,13.2979,4.59992,2472.024,2017-10-05T09:25:07Z
2017-10-05T07:25:18Z,42.805,6.029,13.2979,4.59990,2471.979,2017-10-05T09:26:42Z
2017-10-05T07:26:53Z,42.805,6.029,13.2978,4.59983,2471.979,2017-10-05T09:28:17Z
2017-10-05T07:28:28Z,42.805,6.029,13.2978,4.59995,2472.002,2017-10-05T09:29:52Z
2017-10-05T07:30:03Z,42.805,6.029,13.3000,4.60000,2472.002,2017-10-05T09:31:27Z
2017-10-05T07:31:38Z,42.805,6.029,13.2966,4.59998,2472.002,2017-10-05T09:33:02Z
2017-10-05T07:33:13Z,42.805,6.029,13.2974,4.59987,2472.016,2017-10-05T09:34:36Z
2017-10-05T07:34:47Z,42.805,6.029,13.2958,4.59987,2472.002,2017-10-05T09:36:11Z
2017-10-05T07:36:22Z,42.805,6.029,13.2968,4.60010,2471.979,2017-10-05T09:37:46Z
2017-10-05T07:37:57Z,42.805,6.029,13.2972,4.60003,2471.964,2017-10-05T09:39:21Z
2017-10-05T07:39:32Z,42.805,6.029,13.2955,4.59974,2472.002,2017-10-05T09:40:56Z
2017-10-05T07:41:07Z,42.805,6.029,13.2945,4.59984,2471.957,2017-10-05T09:42:31Z
2017-10-05T07:42:42Z,42.805,6.029,13.2945,4.59984,2472.002,2017-10-05T09:44:05Z
2017-10-05T07:44:16Z,42.805,6.029,13.2960,4.59980,2472.002,2017-10-05T09:45:40Z
2017-10-05T07:45:51Z,42.805,6.029,13.2957,4.59985,2471.979,2017-10-05T09:47:15Z